{"data":{"norad_id":66328,"epoch":"2026-05-25T00:15:43.068096Z","epoch_age_seconds":78082,"freshness":"FRESH","line1":"1 66328U 25253K   26145.01091514  .00012640  00000+0  46789-3 0  9990","line2":"2 66328  42.9981 141.7610 0000442 227.5357 132.5457 15.27591710 31910","mean_motion":15.2759171,"eccentricity":4.42e-5,"inclination_deg":42.9981,"raan_deg":141.761,"arg_perigee_deg":227.5357,"mean_anomaly_deg":132.5457,"bstar":0.00046789,"rev_number":3191,"period_min":94.266026096725,"perigee_km":482.71076943537,"apogee_km":483.31729518662,"semimajor_km":6861.151032311,"source":"CELESTRAK","updated_at":"2026-05-25T13:38:21.168401Z"}}